Weather History for South Bend, IN

Change the Weather History Date:

Monday, May 13, 2013

  Actual Average Record
Temperature  
Mean Temperature 45 °F 58 °F  
Max Temperature 60 °F 69 °F 88 °F (1991)
Min Temperature 30 °F 48 °F 30 °F (1996)
Degree Days  
Heating Degree Days 20 8  
Month to date heating degree days 88 122  
Since 1 July heating degree days 6043 6153  
Cooling Degree Days 0 1  
Month to date cooling degree days 9 11  
Year to date cooling degree days 14 21  
Moisture  
Dew Point 27 °F    
Average Humidity 56    
Maximum Humidity 89    
Minimum Humidity 23    
Precipitation  
Precipitation 0.00 in 0.12 in 1.03 in (1935)
Month to date precipitation 0.18 1.53  
Year to date precipitation 14.23 11.42  
Snow  
Snow 0.00 in 0.00 in - ()
Month to date snowfall 0.0 0.0  
Since 1 July snowfall 59.9 66.6  
Snow Depth 0.00 in    
Sea Level Pressure  
Sea Level Pressure 30.15 in    
Wind  
Wind Speed 5 mph (North)    
Max Wind Speed 18 mph    
Max Gust Speed 24 mph    
Visibility 10 miles    
Events      
T = Trace of Precipitation, MM = Missing Value Source: NWS Daily Summary

Daily Weather History Graph

Daily Weather History Graph

Search for Another Location

Airport:

Trip Planner

Search our weather history database for the weather conditions in past years. The results will help you decide how hot, cold, wet, or windy it might be!

Date:

Astronomy

May. 13, 2013 Rise Set
Actual Time 6:27 AM EDT 8:56 PM EDT
Civil Twilight 5:55 AM EDT 9:28 PM EDT
Nautical Twilight 5:16 AM EDT 10:07 PM EDT
Astronomical Twilight 4:32 AM EDT 10:51 PM EDT
Moon 9:12 AM EDT (5/13) No Moon Set
Length of Visible Light 15h 32m
Length of Day
14h 29m
Waxing Crescent, 12% of the Moon is Illuminated
May 13
Waxing Crescent
May 18
First Quarter
May 25
Full
May 31
Last Quarter
Jun 8
New

Hourly Weather History & Observations

Time (EDT) Temp. Windchill Dew Point Humidity Pressure Visibility Wind Dir Wind Speed Gust Speed Precip Events Conditions
12:54 AM 39.0 °F - 30.0 °F 70% 30.13 in 10.0 mi Calm Calm - N/A   Overcast
1:54 AM 39.9 °F - 32.0 °F 73% 30.14 in 10.0 mi Calm Calm - N/A   Overcast
2:54 AM 37.0 °F 34.5 °F 30.0 °F 76% 30.14 in 10.0 mi NNE 3.5 mph - N/A   Overcast
3:54 AM 37.0 °F - 30.0 °F 76% 30.15 in 10.0 mi Calm Calm - N/A   Mostly Cloudy
4:54 AM 34.0 °F - 28.9 °F 82% 30.15 in 10.0 mi Calm Calm - N/A   Overcast
5:54 AM 33.1 °F 30.0 °F 30.0 °F 89% 30.15 in 10.0 mi NE 3.5 mph - N/A   Clear
6:54 AM 30.0 °F - 27.0 °F 88% 30.15 in 10.0 mi Calm Calm - N/A   Clear
7:54 AM 39.0 °F - 30.9 °F 73% 30.17 in 10.0 mi Calm Calm - N/A   Clear
8:54 AM 43.0 °F - 30.0 °F 60% 30.19 in 10.0 mi Calm Calm - N/A   Clear
9:54 AM 46.9 °F - 26.1 °F 44% 30.21 in 10.0 mi Calm Calm - N/A   Clear
10:54 AM 50.0 °F - 28.0 °F 43% 30.20 in 10.0 mi Calm Calm - N/A   Clear
11:54 AM 52.0 °F - 27.0 °F 38% 30.21 in 10.0 mi West 3.5 mph - N/A   Clear
12:54 PM 55.9 °F - 25.0 °F 30% 30.20 in 10.0 mi NNW 12.7 mph 24.2 mph N/A   Clear
1:54 PM 57.0 °F - 23.0 °F 27% 30.19 in 10.0 mi NW 10.4 mph 24.2 mph N/A   Partly Cloudy
2:54 PM 57.0 °F - 23.0 °F 27% 30.19 in 10.0 mi West 15.0 mph - N/A   Clear
4:54 PM 57.9 °F - 23.0 °F 26% 30.15 in 10.0 mi West 8.1 mph - N/A   Clear
5:54 PM 57.9 °F - 25.0 °F 28% 30.13 in 10.0 mi NW 5.8 mph - N/A   Clear
6:54 PM 60.1 °F - 27.0 °F 28% 30.12 in 10.0 mi Variable 5.8 mph - N/A   Clear
7:54 PM 55.4 °F - 28.4 °F 36% 30.11 in 10.0 mi NNE 3.5 mph - N/A   Clear
8:54 PM 55.0 °F - 26.1 °F 33% 30.11 in 10.0 mi East 3.5 mph - N/A   Clear
9:54 PM 53.1 °F - 25.0 °F 34% 30.11 in 10.0 mi ESE 8.1 mph - N/A   Clear
10:54 PM 52.0 °F - 23.0 °F 32% 30.10 in 10.0 mi ESE 9.2 mph - N/A   Overcast
11:54 PM 52.0 °F - 21.9 °F 31% 30.09 in 10.0 mi SE 9.2 mph - N/A   Mostly Cloudy